28P/Neujmin 1 (2021)

Japanese version
Home page
Updated on September 11, 2021

---------------------------------------------------------------------

* Profile

* Pictures

* Orbital Elements

Epoch 2021 Mar. 7.0 TT = JDT 2459280.5
T 2021 Mar. 11.88440 TT                                 Rudenko
q   1.5782639            (2000.0)            P               Q
n   0.05344607     Peri.  347.41111     +0.89842022     +0.43523480
a   6.9800553      Node   346.33231     -0.37842488     +0.69984989
e   0.7738895      Incl.   14.31174     -0.22279073     +0.56637514
P  18.4
From 588 observations 1913 Sept. 8-2021 June 25, mean residual 0".6.

* Finding Charts

* Magnitudes Graph

        H = 12.2  G = 0.15

---------------------------------------------------------------------

The orbital elements are published on M.P.E.C. 2021-N06.
The charts are made with StellaNavigator Ver.10 (AstroArts).
The magnitudes graphs are made with Comet for Windows.

---------------------------------------------------------------------

Copyright(C) Seiichi Yoshida (comet@aerith.net). All rights reserved.